UTA7775 UHPP-USRO

Flight info

Callsign UTA7775
Flight time N/A
Altitude 32000
Route BAKEN4M BAKEN A812 LUMAG B927 GANPA T155 PLR G932 THN W238 TABOS W298 LUKIS LUKIS1J
Aircraft A321/M-SDE3FGHIRWY/LB1

Departure

Time N/A
Airport Yelizovo Airport (UHPP)

Arrival

Time 2026-04-16 16:42
Airport Noyabrsk Airport (USRO)
Time Latitude Longitude Altitude Speed Heading
2026-04-16 14:30 66.82616 108.23736 36169 ft 445 kts 266°
2026-04-16 14:30 66.82483 108.15894 36163 ft 444 kts 266°
2026-04-16 14:30 66.82204 108.00213 36169 ft 444 kts 266°
2026-04-16 14:31 66.81914 107.84563 36166 ft 444 kts 266°
2026-04-16 14:31 66.81601 107.68894 36173 ft 444 kts 266°
2026-04-16 14:32 66.81274 107.53231 36170 ft 445 kts 266°
2026-04-16 14:32 66.80944 107.37553 36171 ft 445 kts 266°
2026-04-16 14:33 66.80594 107.21878 36169 ft 445 kts 265°
2026-04-16 14:33 66.80223 107.06211 36176 ft 445 kts 265°
2026-04-16 14:34 66.79844 106.90636 36171 ft 445 kts 265°
2026-04-16 14:34 66.79437 106.74968 36178 ft 445 kts 265°
2026-04-16 14:35 66.79018 106.59311 36172 ft 445 kts 265°
2026-04-16 14:35 66.78588 106.43653 36179 ft 445 kts 265°
2026-04-16 14:36 66.78140 106.27980 36178 ft 446 kts 265°
2026-04-16 14:36 66.77673 106.12308 36174 ft 446 kts 264°
2026-04-16 14:37 66.77197 105.96660 36178 ft 446 kts 264°
2026-04-16 14:37 66.76702 105.81017 36178 ft 445 kts 264°
2026-04-16 14:38 66.76186 105.65388 36175 ft 445 kts 264°
2026-04-16 14:38 66.75663 105.49761 36176 ft 445 kts 264°
2026-04-16 14:39 66.75216 105.36784 36170 ft 445 kts 264°
2026-04-16 14:39 66.74564 105.18663 36173 ft 445 kts 264°
2026-04-16 14:40 66.73997 105.03086 36165 ft 445 kts 264°
2026-04-16 14:40 66.73513 104.90137 36161 ft 444 kts 263°
2026-04-16 14:41 66.72921 104.74566 36158 ft 444 kts 263°
2026-04-16 14:41 66.72310 104.59023 36151 ft 444 kts 263°
2026-04-16 14:42 66.71675 104.43475 36152 ft 445 kts 263°
2026-04-16 14:42 66.71033 104.27922 36154 ft 444 kts 263°
2026-04-16 14:43 66.70373 104.12385 36152 ft 445 kts 263°
2026-04-16 14:43 66.69700 103.96858 36148 ft 445 kts 263°
2026-04-16 14:44 66.69007 103.81316 36153 ft 445 kts 262°
2026-04-16 14:44 66.68295 103.65784 36150 ft 446 kts 262°
2026-04-16 14:45 66.67570 103.50331 36153 ft 446 kts 262°
2026-04-16 14:45 66.66836 103.34797 36158 ft 446 kts 262°
2026-04-16 14:46 66.66094 103.19263 36160 ft 446 kts 262°
2026-04-16 14:46 66.65318 103.03741 36158 ft 446 kts 262°
2026-04-16 14:47 66.64528 102.88225 36156 ft 446 kts 262°
2026-04-16 14:47 66.63727 102.72710 36156 ft 446 kts 261°
2026-04-16 14:48 66.62914 102.57220 36156 ft 446 kts 261°
2026-04-16 14:48 66.62080 102.41740 36166 ft 446 kts 261°
2026-04-16 14:49 66.61241 102.26358 36161 ft 446 kts 261°
2026-04-16 14:49 66.60384 102.10867 36160 ft 447 kts 261°
2026-04-16 14:50 66.59498 101.95373 36156 ft 447 kts 261°
2026-04-16 14:50 66.58605 101.79908 36156 ft 447 kts 261°
2026-04-16 14:51 66.57706 101.64435 36156 ft 447 kts 261°
2026-04-16 14:51 66.56781 101.48974 36164 ft 447 kts 260°
2026-04-16 14:53 66.52935 100.87224 36163 ft 448 kts 259°
2026-04-16 14:54 66.51922 100.71822 36163 ft 447 kts 259°
2026-04-16 14:54 66.50902 100.56435 36172 ft 447 kts 259°
2026-04-16 14:55 66.49886 100.41153 36169 ft 448 kts 259°
2026-04-16 14:55 66.48840 100.25785 36166 ft 448 kts 259°
2026-04-16 14:56 66.47778 100.10395 36164 ft 448 kts 259°
2026-04-16 14:56 66.46706 99.95042 36164 ft 448 kts 259°
2026-04-16 14:57 66.45614 99.79699 36153 ft 448 kts 258°
2026-04-16 14:57 66.44507 99.64372 36162 ft 448 kts 258°
2026-04-16 14:58 66.42813 99.41408 36154 ft 448 kts 258°
2026-04-16 14:59 66.41666 99.26096 36153 ft 448 kts 258°
2026-04-16 14:59 66.40513 99.10802 36145 ft 448 kts 258°
2026-04-16 15:00 66.39334 98.95533 36148 ft 448 kts 258°
2026-04-16 15:00 66.38148 98.80266 36135 ft 448 kts 258°
2026-04-16 15:01 66.36945 98.64992 36138 ft 448 kts 257°
2026-04-16 15:01 66.35729 98.49855 36133 ft 449 kts 257°
2026-04-16 15:02 66.34496 98.34625 36137 ft 449 kts 257°
2026-04-16 15:02 66.33242 98.19394 36133 ft 449 kts 257°
2026-04-16 15:03 66.31976 98.04194 36133 ft 449 kts 257°
2026-04-16 15:03 66.30690 97.89014 36117 ft 449 kts 256°
2026-04-16 15:04 66.29396 97.73834 36119 ft 448 kts 257°
2026-04-16 15:04 66.28083 97.58677 36114 ft 448 kts 256°
2026-04-16 15:05 66.26761 97.43548 36110 ft 448 kts 256°
2026-04-16 15:05 66.25431 97.28532 36108 ft 448 kts 256°
2026-04-16 15:06 66.24072 97.13348 36107 ft 448 kts 256°
2026-04-16 15:06 66.22701 96.98239 36107 ft 448 kts 256°
2026-04-16 15:07 66.21327 96.83266 36092 ft 449 kts 255°
2026-04-16 15:07 66.19933 96.68194 36085 ft 449 kts 255°
2026-04-16 15:08 66.18515 96.53117 36080 ft 450 kts 255°
2026-04-16 15:08 66.17082 96.38068 36084 ft 450 kts 255°
2026-04-16 15:09 66.15635 96.23021 36074 ft 450 kts 256°
2026-04-16 15:09 66.14176 96.07982 36082 ft 450 kts 255°
2026-04-16 15:10 66.12705 95.92961 36082 ft 450 kts 255°
2026-04-16 15:10 66.11228 95.78050 36079 ft 450 kts 254°
2026-04-16 15:11 66.09710 95.62966 36073 ft 450 kts 255°
2026-04-16 15:11 66.08206 95.48114 36068 ft 450 kts 254°
2026-04-16 15:12 66.06675 95.33166 36067 ft 450 kts 254°
2026-04-16 15:12 66.05131 95.18220 36067 ft 450 kts 253°
2026-04-16 15:13 66.03563 95.03308 36059 ft 450 kts 254°
2026-04-16 15:13 66.01976 94.88417 36055 ft 450 kts 254°
2026-04-16 15:14 66.00382 94.73546 36049 ft 450 kts 254°
2026-04-16 15:14 65.98778 94.58677 36047 ft 450 kts 254°
2026-04-16 15:15 65.97147 94.43824 36077 ft 452 kts 253°
2026-04-16 15:15 65.95492 94.28993 35773 ft 451 kts 254°
2026-04-16 15:15 65.94679 94.21574 35250 ft 451 kts 253°
2026-04-16 15:16 65.93860 94.14162 34718 ft 451 kts 253°
2026-04-16 15:16 65.93032 94.06749 34163 ft 451 kts 254°
2026-04-16 15:16 65.92200 93.99372 33563 ft 450 kts 254°
2026-04-16 15:16 65.91363 93.91964 32884 ft 450 kts 254°
2026-04-16 15:17 65.90528 93.84586 32252 ft 450 kts 253°
2026-04-16 15:17 65.89687 93.77213 31627 ft 449 kts 253°
2026-04-16 15:17 65.88844 93.69876 31031 ft 448 kts 253°
2026-04-16 15:17 65.88003 93.62569 30490 ft 445 kts 253°
2026-04-16 15:18 65.87165 93.55306 29909 ft 443 kts 253°
2026-04-16 15:18 65.84704 93.34318 27632 ft 439 kts 252°
2026-04-16 15:19 65.83859 93.27164 26810 ft 439 kts 252°
2026-04-16 15:19 65.83002 93.19996 25978 ft 438 kts 252°
2026-04-16 15:19 65.82149 93.12866 25172 ft 437 kts 252°
2026-04-16 15:19 65.81296 93.05764 24350 ft 436 kts 252°
2026-04-16 15:20 65.80440 92.98667 23881 ft 439 kts 251°
2026-04-16 15:20 65.79572 92.91513 24350 ft 439 kts 251°
2026-04-16 15:20 65.78714 92.84414 24992 ft 436 kts 252°
2026-04-16 15:20 65.77852 92.77321 25501 ft 437 kts 252°
2026-04-16 15:21 65.76987 92.70235 25978 ft 437 kts 252°
2026-04-16 15:21 65.76116 92.63142 26445 ft 438 kts 252°
2026-04-16 15:21 65.75240 92.56041 26907 ft 438 kts 252°
2026-04-16 15:21 65.74355 92.48924 27338 ft 440 kts 251°
2026-04-16 15:22 65.73466 92.41813 27760 ft 441 kts 252°
2026-04-16 15:22 65.72569 92.34670 28208 ft 442 kts 252°
2026-04-16 15:22 65.71667 92.27520 28629 ft 443 kts 252°
2026-04-16 15:22 65.70760 92.20370 29049 ft 444 kts 251°
2026-04-16 15:23 65.69848 92.13198 29454 ft 445 kts 252°
2026-04-16 15:23 65.68932 92.06021 29902 ft 445 kts 252°
2026-04-16 15:23 65.68023 91.98934 30261 ft 446 kts 252°
2026-04-16 15:23 65.67102 91.91757 30611 ft 446 kts 252°
2026-04-16 15:24 65.66177 91.84568 30914 ft 447 kts 252°
2026-04-16 15:24 65.65247 91.77369 31221 ft 448 kts 252°
2026-04-16 15:24 65.64309 91.70161 31502 ft 449 kts 251°
2026-04-16 15:24 65.63362 91.62945 31862 ft 449 kts 252°
2026-04-16 15:25 65.62411 91.55727 32198 ft 449 kts 252°
2026-04-16 15:25 65.61461 91.48533 32529 ft 449 kts 251°
2026-04-16 15:25 65.60502 91.41310 32802 ft 450 kts 251°
2026-04-16 15:25 65.59543 91.34120 33132 ft 450 kts 251°
2026-04-16 15:26 65.58578 91.26908 33426 ft 450 kts 252°
2026-04-16 15:26 65.57610 91.19723 33734 ft 450 kts 251°
2026-04-16 15:26 65.56637 91.12534 34060 ft 449 kts 251°
2026-04-16 15:26 65.55668 91.05358 34301 ft 450 kts 251°
2026-04-16 15:27 65.54690 90.98168 34524 ft 450 kts 251°
2026-04-16 15:27 65.53705 90.90989 34719 ft 451 kts 251°
2026-04-16 15:27 65.52713 90.83810 34980 ft 451 kts 251°
2026-04-16 15:27 65.51719 90.76640 35200 ft 451 kts 251°
2026-04-16 15:28 65.50726 90.69466 35448 ft 451 kts 251°
2026-04-16 15:28 65.49731 90.62302 35673 ft 451 kts 251°
2026-04-16 15:28 65.48735 90.55143 35873 ft 451 kts 251°
2026-04-16 15:29 65.46722 90.40793 35972 ft 452 kts 251°
2026-04-16 15:29 65.44697 90.26477 35971 ft 451 kts 251°
2026-04-16 15:30 65.42654 90.12201 35973 ft 452 kts 251°
2026-04-16 15:30 65.40619 89.98005 35980 ft 452 kts 251°
2026-04-16 15:31 65.38556 89.83750 35976 ft 452 kts 251°
2026-04-16 15:31 65.36475 89.69520 35971 ft 453 kts 251°
2026-04-16 15:32 65.34380 89.55291 35962 ft 454 kts 251°
2026-04-16 15:32 65.32265 89.41044 35968 ft 454 kts 251°
2026-04-16 15:33 65.30131 89.26818 35967 ft 454 kts 250°
2026-04-16 15:33 65.27986 89.12610 35970 ft 455 kts 250°
2026-04-16 15:34 65.25822 88.98417 35975 ft 454 kts 250°
2026-04-16 15:34 65.23651 88.84267 35973 ft 455 kts 250°
2026-04-16 15:35 65.21463 88.70115 35968 ft 455 kts 250°
2026-04-16 15:35 65.19261 88.56008 35969 ft 454 kts 250°
2026-04-16 15:36 65.17053 88.41922 35967 ft 454 kts 250°
2026-04-16 15:36 65.14834 88.27831 35968 ft 455 kts 250°
2026-04-16 15:37 65.12971 88.16153 35964 ft 455 kts 250°
2026-04-16 15:37 65.10715 88.02101 35962 ft 455 kts 250°
2026-04-16 15:38 65.08447 87.88068 35972 ft 455 kts 249°
2026-04-16 15:38 65.06172 87.74063 35970 ft 455 kts 249°
2026-04-16 15:39 65.03903 87.60161 35977 ft 455 kts 250°
2026-04-16 15:39 65.01593 87.46182 35974 ft 456 kts 249°
2026-04-16 15:40 64.99265 87.32248 35983 ft 455 kts 249°
2026-04-16 15:40 64.96933 87.18346 35982 ft 455 kts 249°
2026-04-16 15:41 64.94589 87.04438 35996 ft 455 kts 249°
2026-04-16 15:41 64.92233 86.90565 35994 ft 455 kts 249°
2026-04-16 15:42 64.89876 86.76827 35998 ft 455 kts 249°
2026-04-16 15:42 64.87496 86.63021 36009 ft 455 kts 249°
2026-04-16 15:43 64.85102 86.49234 36004 ft 455 kts 249°
2026-04-16 15:43 64.82695 86.35470 36017 ft 455 kts 249°
2026-04-16 15:44 64.80273 86.21729 36014 ft 455 kts 248°
2026-04-16 15:44 64.77845 86.08037 36027 ft 455 kts 248°
2026-04-16 15:45 64.75404 85.94359 36005 ft 455 kts 248°
2026-04-16 15:45 64.72960 85.80706 36015 ft 455 kts 249°
2026-04-16 15:46 64.70496 85.67059 36028 ft 456 kts 248°
2026-04-16 15:46 64.68001 85.53430 36029 ft 456 kts 248°
2026-04-16 15:47 64.65500 85.39819 36044 ft 456 kts 248°
2026-04-16 15:47 64.62999 85.26254 35760 ft 452 kts 248°
2026-04-16 15:47 64.61750 85.19540 35648 ft 452 kts 248°
2026-04-16 15:48 64.60491 85.12815 35531 ft 454 kts 248°
2026-04-16 15:48 64.59241 85.06162 35410 ft 455 kts 248°
2026-04-16 15:48 64.57971 84.99411 35306 ft 454 kts 248°
2026-04-16 15:48 64.56703 84.92686 35188 ft 454 kts 248°
2026-04-16 15:49 64.55434 84.85974 35071 ft 454 kts 248°
2026-04-16 15:49 64.52896 84.72543 34852 ft 454 kts 248°
2026-04-16 15:49 64.51624 84.65844 34742 ft 454 kts 248°
2026-04-16 15:50 64.50342 84.59132 34616 ft 454 kts 248°
2026-04-16 15:50 64.47764 84.45761 34339 ft 454 kts 247°
2026-04-16 15:50 64.46473 84.39097 33933 ft 452 kts 247°
2026-04-16 15:51 64.45182 84.32457 33666 ft 453 kts 247°
2026-04-16 15:51 64.43884 84.25804 33397 ft 453 kts 247°
2026-04-16 15:51 64.42582 84.19159 33135 ft 453 kts 247°
2026-04-16 15:51 64.41279 84.12526 32873 ft 453 kts 247°
2026-04-16 15:52 64.39973 84.05890 32610 ft 453 kts 247°
2026-04-16 15:52 64.38668 83.99274 32161 ft 452 kts 247°
2026-04-16 15:52 64.37359 83.92673 31530 ft 451 kts 246°
2026-04-16 15:52 64.36069 83.86181 30924 ft 450 kts 247°
2026-04-16 15:53 64.34761 83.79620 30288 ft 450 kts 246°
2026-04-16 15:53 64.33454 83.73077 29596 ft 448 kts 246°
2026-04-16 15:53 64.32147 83.66550 28724 ft 449 kts 245°
2026-04-16 15:53 64.30835 83.60014 27866 ft 449 kts 246°
2026-04-16 15:54 64.29518 83.53475 26978 ft 451 kts 246°
2026-04-16 15:54 64.28201 83.46947 26148 ft 450 kts 246°
2026-04-16 15:54 64.26875 83.40400 25318 ft 450 kts 245°
2026-04-16 15:54 64.25551 83.33891 24510 ft 448 kts 245°
2026-04-16 15:55 64.24224 83.27409 23656 ft 448 kts 244°
2026-04-16 15:55 64.22894 83.20939 22540 ft 448 kts 244°
2026-04-16 15:55 64.21555 83.14437 21296 ft 452 kts 244°
2026-04-16 15:55 64.20201 83.07876 20071 ft 454 kts 245°
2026-04-16 15:56 64.18870 83.01434 18566 ft 440 kts 244°
2026-04-16 15:56 64.17592 82.95276 17685 ft 413 kts 244°
2026-04-16 15:56 64.16399 82.89545 17369 ft 387 kts 244°
2026-04-16 15:56 64.15252 82.84056 17159 ft 377 kts 245°
2026-04-16 15:57 64.14132 82.78716 17082 ft 366 kts 245°
2026-04-16 15:57 64.13044 82.73538 17101 ft 356 kts 245°
2026-04-16 15:57 64.11986 82.68505 17114 ft 346 kts 245°
2026-04-16 15:57 64.10967 82.63664 17112 ft 337 kts 245°
2026-04-16 15:58 64.09965 82.58915 17203 ft 326 kts 245°
2026-04-16 15:58 64.08997 82.54332 17350 ft 314 kts 245°
2026-04-16 15:58 64.08062 82.49928 17481 ft 302 kts 245°
2026-04-16 15:58 64.07315 82.45578 17615 ft 288 kts 258°
2026-04-16 15:59 64.06443 82.36981 18011 ft 280 kts 258°
2026-04-16 15:59 64.05985 82.32443 18121 ft 307 kts 258°
2026-04-16 15:59 64.05484 82.27459 18135 ft 336 kts 258°
2026-04-16 16:00 64.04936 82.22038 18129 ft 364 kts 258°
2026-04-16 16:00 64.04346 82.16235 18119 ft 385 kts 258°
2026-04-16 16:00 64.03731 82.10246 18124 ft 389 kts 258°
2026-04-16 16:00 64.03109 82.04212 18139 ft 393 kts 258°
2026-04-16 16:01 64.02481 81.98117 18139 ft 396 kts 258°
2026-04-16 16:01 64.01846 81.91974 18131 ft 394 kts 258°
2026-04-16 16:01 64.01215 81.85939 18136 ft 390 kts 258°
2026-04-16 16:01 64.00580 81.79930 18135 ft 390 kts 258°
2026-04-16 16:02 63.99955 81.74003 18133 ft 389 kts 258°
2026-04-16 16:02 63.99322 81.68019 18133 ft 388 kts 258°
2026-04-16 16:02 63.98687 81.62040 18133 ft 388 kts 258°
2026-04-16 16:02 63.98050 81.56071 18133 ft 387 kts 258°
2026-04-16 16:03 63.97412 81.50122 18139 ft 387 kts 257°
2026-04-16 16:03 63.96769 81.44173 18138 ft 386 kts 257°
2026-04-16 16:03 63.96124 81.38223 18139 ft 386 kts 257°
2026-04-16 16:03 63.95480 81.32302 18138 ft 385 kts 257°
2026-04-16 16:04 63.94836 81.26387 18141 ft 385 kts 257°
2026-04-16 16:04 63.94192 81.20481 18152 ft 384 kts 257°
2026-04-16 16:04 63.93549 81.14573 18152 ft 384 kts 257°
2026-04-16 16:04 63.92902 81.08696 18152 ft 383 kts 257°
2026-04-16 16:05 63.92250 81.02819 18155 ft 383 kts 257°
2026-04-16 16:05 63.91604 80.97029 18155 ft 383 kts 257°
2026-04-16 16:05 63.90949 80.91173 18160 ft 382 kts 257°
2026-04-16 16:05 63.90293 80.85326 18160 ft 382 kts 257°
2026-04-16 16:06 63.89634 80.79486 18163 ft 381 kts 257°
2026-04-16 16:06 63.88974 80.73661 18163 ft 381 kts 257°
2026-04-16 16:06 63.88291 80.67657 18167 ft 404 kts 257°
2026-04-16 16:06 63.87591 80.61509 18160 ft 400 kts 257°
2026-04-16 16:07 63.86894 80.55415 18167 ft 397 kts 257°
2026-04-16 16:07 63.86198 80.49384 18168 ft 394 kts 257°
2026-04-16 16:07 63.85508 80.43408 18168 ft 391 kts 257°
2026-04-16 16:07 63.84823 80.37468 18168 ft 388 kts 257°
2026-04-16 16:08 63.84145 80.31581 18168 ft 385 kts 257°
2026-04-16 16:08 63.83466 80.25733 18179 ft 382 kts 257°
2026-04-16 16:08 63.82790 80.19946 18179 ft 379 kts 257°
2026-04-16 16:08 63.82113 80.14190 18179 ft 377 kts 257°
2026-04-16 16:09 63.81438 80.08476 18179 ft 374 kts 256°
2026-04-16 16:09 63.80762 80.02794 18179 ft 372 kts 256°
2026-04-16 16:09 63.80090 79.97157 18190 ft 370 kts 256°
2026-04-16 16:09 63.79429 79.91627 18190 ft 367 kts 256°
2026-04-16 16:10 63.78759 79.86064 18178 ft 365 kts 256°
2026-04-16 16:10 63.78092 79.80543 18189 ft 363 kts 256°
2026-04-16 16:10 63.77425 79.75052 18190 ft 361 kts 256°
2026-04-16 16:10 63.76763 79.69610 18193 ft 359 kts 256°
2026-04-16 16:11 63.76101 79.64181 18193 ft 357 kts 256°
2026-04-16 16:11 63.75442 79.58771 18193 ft 356 kts 256°
2026-04-16 16:11 63.74786 79.53389 18193 ft 354 kts 256°
2026-04-16 16:11 63.74129 79.48045 18193 ft 353 kts 256°
2026-04-16 16:12 63.73472 79.42724 18193 ft 351 kts 256°
2026-04-16 16:12 63.72815 79.37427 18201 ft 350 kts 256°
2026-04-16 16:12 63.72158 79.32150 18201 ft 348 kts 256°
2026-04-16 16:12 63.71503 79.26889 18201 ft 347 kts 256°
2026-04-16 16:13 63.70849 79.21658 18201 ft 346 kts 256°
2026-04-16 16:13 63.70195 79.16451 18201 ft 344 kts 256°
2026-04-16 16:13 63.69544 79.11269 18188 ft 343 kts 256°
2026-04-16 16:13 63.68898 79.06113 18203 ft 341 kts 257°
2026-04-16 16:14 63.68268 79.00964 18204 ft 340 kts 257°
2026-04-16 16:14 63.67649 78.95838 18203 ft 339 kts 257°
2026-04-16 16:14 63.67030 78.90722 18204 ft 338 kts 257°
2026-04-16 16:14 63.66419 78.85688 18204 ft 337 kts 257°
2026-04-16 16:15 63.65801 78.80613 18215 ft 336 kts 257°
2026-04-16 16:15 63.65180 78.75544 18215 ft 335 kts 257°
2026-04-16 16:15 63.64559 78.70498 18215 ft 334 kts 257°
2026-04-16 16:15 63.63936 78.65461 18215 ft 334 kts 257°
2026-04-16 16:16 63.63313 78.60437 18215 ft 333 kts 257°
2026-04-16 16:16 63.62690 78.55422 18214 ft 332 kts 257°
2026-04-16 16:16 63.62064 78.50415 18223 ft 332 kts 256°
2026-04-16 16:16 63.61438 78.45433 18223 ft 331 kts 256°
2026-04-16 16:17 63.60815 78.40461 18223 ft 330 kts 257°
2026-04-16 16:17 63.60190 78.35490 18214 ft 329 kts 257°
2026-04-16 16:17 63.59569 78.30553 18222 ft 329 kts 257°
2026-04-16 16:17 63.58943 78.25607 18223 ft 328 kts 257°
2026-04-16 16:18 63.58314 78.20681 18234 ft 328 kts 257°
2026-04-16 16:18 63.57686 78.15761 18233 ft 327 kts 257°
2026-04-16 16:18 63.57055 78.10801 17996 ft 334 kts 257°
2026-04-16 16:18 63.56417 78.05778 17726 ft 332 kts 257°
2026-04-16 16:19 63.55793 78.00918 17473 ft 324 kts 257°
2026-04-16 16:19 63.55172 77.96118 17205 ft 317 kts 257°
2026-04-16 16:19 63.54560 77.91420 16958 ft 312 kts 257°
2026-04-16 16:19 63.53955 77.86772 16707 ft 309 kts 257°
2026-04-16 16:20 63.53353 77.82154 16370 ft 307 kts 257°
2026-04-16 16:20 63.52755 77.77571 16027 ft 305 kts 256°
2026-04-16 16:20 63.52161 77.73029 15666 ft 303 kts 256°
2026-04-16 16:20 63.51568 77.68517 15297 ft 301 kts 256°
2026-04-16 16:21 63.50977 77.64035 14935 ft 299 kts 256°
2026-04-16 16:21 63.50383 77.59561 14554 ft 299 kts 257°
2026-04-16 16:21 63.49792 77.55125 14198 ft 297 kts 257°
2026-04-16 16:21 63.49201 77.50691 13834 ft 296 kts 257°
2026-04-16 16:22 63.48613 77.46298 13452 ft 294 kts 257°
2026-04-16 16:22 63.48028 77.41921 13068 ft 292 kts 257°
2026-04-16 16:22 63.47445 77.37569 12690 ft 291 kts 256°
2026-04-16 16:22 63.46865 77.33252 12339 ft 289 kts 256°
2026-04-16 16:23 63.46285 77.28955 11987 ft 288 kts 256°
2026-04-16 16:23 63.45707 77.24672 11626 ft 286 kts 256°
2026-04-16 16:23 63.45132 77.20421 11280 ft 285 kts 256°
2026-04-16 16:23 63.44557 77.16182 10927 ft 284 kts 256°
2026-04-16 16:24 63.43991 77.12038 10588 ft 282 kts 256°
2026-04-16 16:24 63.43419 77.07855 10255 ft 281 kts 256°
2026-04-16 16:24 63.42848 77.03687 9894 ft 280 kts 256°
2026-04-16 16:24 63.42281 76.99557 9523 ft 278 kts 256°
2026-04-16 16:25 63.41715 76.95433 9170 ft 276 kts 256°
2026-04-16 16:25 63.41335 76.92667 8932 ft 275 kts 256°
2026-04-16 16:25 63.40773 76.88594 8577 ft 273 kts 257°
2026-04-16 16:25 63.40221 76.84607 8237 ft 272 kts 257°
2026-04-16 16:26 63.39664 76.80596 7907 ft 270 kts 256°
2026-04-16 16:26 63.39109 76.76607 7584 ft 268 kts 256°
2026-04-16 16:26 63.38556 76.72652 7255 ft 267 kts 256°
2026-04-16 16:26 63.38001 76.68697 6948 ft 265 kts 256°
2026-04-16 16:27 63.37449 76.64778 6647 ft 264 kts 256°
2026-04-16 16:27 63.36902 76.60888 6338 ft 262 kts 256°
2026-04-16 16:27 63.36359 76.57025 6251 ft 261 kts 256°
2026-04-16 16:27 63.35815 76.53139 6267 ft 262 kts 256°
2026-04-16 16:28 63.35269 76.49262 6262 ft 263 kts 256°
2026-04-16 16:28 63.34718 76.45380 6270 ft 263 kts 256°
2026-04-16 16:28 63.34166 76.41500 6264 ft 263 kts 256°
2026-04-16 16:28 63.33613 76.37617 6266 ft 263 kts 256°
2026-04-16 16:29 63.33065 76.33796 6264 ft 263 kts 256°
2026-04-16 16:29 63.32510 76.29933 6035 ft 261 kts 256°
2026-04-16 16:29 63.31958 76.26099 5680 ft 260 kts 256°
2026-04-16 16:29 63.31392 76.22291 5328 ft 259 kts 252°
2026-04-16 16:30 63.30642 76.18640 4965 ft 259 kts 249°
2026-04-16 16:30 63.29862 76.15040 4602 ft 258 kts 248°
2026-04-16 16:30 63.29087 76.11462 4314 ft 254 kts 248°
2026-04-16 16:30 63.28320 76.07934 4281 ft 250 kts 248°
2026-04-16 16:31 63.27583 76.04562 4266 ft 234 kts 248°
2026-04-16 16:31 63.26898 76.01426 4258 ft 219 kts 249°
2026-04-16 16:31 63.26242 75.98415 4263 ft 215 kts 249°
2026-04-16 16:31 63.25607 75.95503 4284 ft 199 kts 249°
2026-04-16 16:32 63.25030 75.92884 4259 ft 180 kts 250°
2026-04-16 16:32 63.24494 75.90426 4272 ft 176 kts 250°
2026-04-16 16:32 63.23965 75.87990 4269 ft 175 kts 250°
2026-04-16 16:32 63.23435 75.85559 4272 ft 175 kts 250°
2026-04-16 16:33 63.22906 75.83132 4276 ft 175 kts 250°
2026-04-16 16:33 63.22384 75.80741 4267 ft 174 kts 250°
2026-04-16 16:33 63.21860 75.78353 4019 ft 172 kts 250°
2026-04-16 16:33 63.21346 75.76011 3829 ft 166 kts 250°
2026-04-16 16:34 63.20841 75.73719 3578 ft 165 kts 250°
2026-04-16 16:34 63.20337 75.71435 3316 ft 164 kts 251°
2026-04-16 16:34 63.19841 75.69185 3080 ft 162 kts 251°
2026-04-16 16:34 63.19352 75.66964 2839 ft 159 kts 251°
2026-04-16 16:35 63.18868 75.64774 2592 ft 157 kts 252°
2026-04-16 16:35 63.18385 75.62600 2357 ft 156 kts 251°
2026-04-16 16:35 63.17910 75.60453 2135 ft 155 kts 251°
2026-04-16 16:35 63.17438 75.58316 1871 ft 154 kts 251°
2026-04-16 16:36 63.16972 75.56211 1608 ft 154 kts 250°
2026-04-16 16:36 63.16501 75.54084 1336 ft 153 kts 249°
2026-04-16 16:36 63.16027 75.51949 1275 ft 152 kts 249°
2026-04-16 16:36 63.15564 75.49872 1267 ft 152 kts 248°
2026-04-16 16:37 63.15096 75.47776 1272 ft 152 kts 249°
2026-04-16 16:37 63.14629 75.45683 1277 ft 152 kts 249°
2026-04-16 16:37 63.14159 75.43590 1285 ft 152 kts 249°
2026-04-16 16:37 63.13686 75.41493 1276 ft 152 kts 248°
2026-04-16 16:38 63.13216 75.39402 1283 ft 152 kts 248°
2026-04-16 16:38 63.12745 75.37302 1285 ft 152 kts 249°
2026-04-16 16:38 63.12274 75.35205 1289 ft 152 kts 249°
2026-04-16 16:38 63.11806 75.33114 1289 ft 152 kts 249°
2026-04-16 16:39 63.11338 75.31016 1288 ft 152 kts 249°
2026-04-16 16:39 63.10884 75.28904 1283 ft 151 kts 257°
2026-04-16 16:39 63.10769 75.26683 1472 ft 145 kts 282°
2026-04-16 16:39 63.11064 75.24635 1476 ft 138 kts 305°
2026-04-16 16:40 63.11686 75.23081 1489 ft 134 kts 327°
2026-04-16 16:40 63.12513 75.22212 1484 ft 132 kts 347°
2026-04-16 16:40 63.13421 75.22086 1369 ft 130 kts
2026-04-16 16:40 63.14281 75.22742 1111 ft 131 kts 22°
2026-04-16 16:41 63.15124 75.23581 1020 ft 135 kts 22°
2026-04-16 16:41 63.16003 75.24455 822 ft 145 kts 22°
2026-04-16 16:41 63.16870 75.25342 636 ft 131 kts 21°
2026-04-16 16:41 63.17664 75.26145 464 ft 117 kts 24°
2026-04-16 16:42 63.18229 75.26724 459 ft 49 kts 25°
2026-04-16 16:42 63.18374 75.26877 457 ft 2 kts 25°
2026-04-16 16:42 63.18378 75.26897 457 ft 1 kts 89°
2026-04-16 16:42 63.18314 75.27065 457 ft 24 kts 121°
2026-04-16 16:43 63.18262 75.27365 456 ft 13 kts 71°
2026-04-16 16:43 63.18337 75.27433 456 ft 12 kts 328°
2026-04-16 16:43 63.18330 75.27330 456 ft 6 kts 221°
2026-04-16 16:43 63.18318 75.27314 456 ft 0 kts 209°